Torna al catalogo

STARLINK-35306

AttivoComunicazioniVLEO
NORAD 67361·PAYLOAD·🇺🇸 United States

Lanciato Jan 9, 2026 da Cape Canaveral Space Force Station

Loading…

Prossimi Passaggi (prossime 24 ore)

TLE

AggiornatoSource: CelesTrak SupGP

Epoca: Sep 14, 2026, 21:47 UTC

1 67361C 26003AD  26257.90812500  .00040096  00000+0  14523-2 0  2573
2 67361  42.9991 238.3849 0001337 262.7978  81.8946 15.27558286    17

Traccia STARLINK-35306 in tempo reale con AllMySat

Download on the App Store